Time,TemperatureF,DewpointF,PressureIn,WindDirection,WindDirectionDegrees,WindSpeedMPH,WindSpeedGustMPH,Humidity,HourlyPrecipIn,Conditions,Clouds,dailyrainin,SoftwareType,DateUTC
2013-01-03 12:31:00,67.3,51.0,30.15,West,270,0.0,0.0,56,-99.99,,,-99.99,WeatherSnoop3.0,2013-01-03 17:31:00,
2013-01-03 12:33:00,67.3,51.0,30.15,West,270,0.0,0.0,56,-99.99,,,-99.99,WeatherSnoop3.0,2013-01-03 17:33:00,
2013-01-03 12:38:00,67.3,51.5,30.14,West,270,0.0,0.0,57,-99.99,,,-99.99,WeatherSnoop3.0,2013-01-03 17:38:00,
2013-01-03 12:43:00,67.3,51.0,30.14,West,270,0.0,0.0,56,-99.99,,,-99.99,WeatherSnoop3.0,2013-01-03 17:43:00,
2013-01-03 12:48:00,67.5,51.2,30.14,West,270,0.0,0.0,56,-99.99,,,-99.99,WeatherSnoop3.0,2013-01-03 17:48:00,
2013-01-03 12:53:00,67.5,51.2,30.14,South,180,0.0,0.0,56,-99.99,,,-99.99,WeatherSnoop3.0,2013-01-03 17:53:00,
2013-01-03 12:58:00,67.5,51.2,30.14,South,180,0.0,0.0,56,-99.99,,,-99.99,WeatherSnoop3.0,2013-01-03 17:58:00,
2013-01-03 13:03:00,67.6,51.4,30.13,South,180,0.0,0.0,56,-99.99,,,-99.99,WeatherSnoop3.0,2013-01-03 18:03:00,
2013-01-03 13:08:00,67.8,52.0,30.13,South,180,0.0,0.0,57,-99.99,,,-99.99,WeatherSnoop3.0,2013-01-03 18:08:00,
2013-01-03 13:13:00,67.8,51.5,30.13,South,180,0.0,0.0,56,-99.99,,,-99.99,WeatherSnoop3.0,2013-01-03 18:13:00,
2013-01-03 13:18:00,68.0,51.2,30.13,South,180,0.0,0.0,55,-99.99,,,-99.99,WeatherSnoop3.0,2013-01-03 18:18:00,
2013-01-03 13:23:00,68.0,51.2,30.13,South,180,0.0,0.0,55,-99.99,,,-99.99,WeatherSnoop3.0,2013-01-03 18:23:00,
2013-01-03 13:28:00,68.2,51.4,30.13,South,180,0.0,0.0,55,-99.99,,,-99.99,WeatherSnoop3.0,2013-01-03 18:28:00,
2013-01-03 13:33:00,68.2,51.4,30.13,South,180,0.0,0.7,55,-99.99,,,-99.99,WeatherSnoop3.0,2013-01-03 18:33:00,
2013-01-03 13:35:00,67.5,51.7,30.13,East,90,0.0,1.6,57,-99.99,,,-99.99,WeatherSnoop3.0,2013-01-03 18:35:00,
2013-01-03 13:40:00,59.9,47.7,30.13,North,0,0.0,0.7,64,-99.99,,,-99.99,WeatherSnoop3.0,2013-01-03 18:40:00,
2013-01-03 13:45:00,56.7,47.0,30.13,South,180,0.0,0.0,70,-99.99,,,-99.99,WeatherSnoop3.0,2013-01-03 18:45:00,
2013-01-03 13:50:00,55.6,47.1,30.13,South,180,0.0,0.0,73,-99.99,,,-99.99,WeatherSnoop3.0,2013-01-03 18:50:00,
2013-01-03 13:55:00,54.1,46.4,30.13,North,0,0.0,0.0,75,-99.99,,,-99.99,WeatherSnoop3.0,2013-01-03 18:55:00,
2013-01-03 14:00:00,53.4,46.7,30.14,North,0,0.0,0.0,78,-99.99,,,-99.99,WeatherSnoop3.0,2013-01-03 19:00:00,
2013-01-03 14:05:00,53.4,48.1,30.13,South,180,0.0,0.0,82,-99.99,,,-99.99,WeatherSnoop3.0,2013-01-03 19:05:00,
2013-01-03 14:10:00,52.9,47.9,30.13,NW,315,0.0,0.0,83,-99.99,,,-99.99,WeatherSnoop3.0,2013-01-03 19:10:00,
2013-01-03 14:15:00,52.5,47.8,30.13,East,90,0.0,0.0,84,-99.99,,,-99.99,WeatherSnoop3.0,2013-01-03 19:15:00,
2013-01-03 14:54:00,52.9,49.1,30.13,North,0,0.0,0.0,87,-99.99,,,-99.99,WeatherSnoop3.0,2013-01-03 19:54:00,
2013-01-03 14:59:00,52.7,48.9,30.13,South,180,0.0,0.0,87,-99.99,,,-99.99,WeatherSnoop3.0,2013-01-03 19:59:00,
2013-01-03 15:04:00,52.7,48.9,30.13,South,180,0.0,0.0,87,-99.99,,,-99.99,WeatherSnoop3.0,2013-01-03 20:04:00,
2013-01-03 15:11:00,52.7,49.2,30.13,North,0,0.0,0.0,88,-99.99,,,-99.99,WeatherSnoop3.0,2013-01-03 20:11:00,
2013-01-03 15:16:00,52.3,48.9,30.13,South,180,0.0,0.0,88,-99.99,,,-99.99,WeatherSnoop3.0,2013-01-03 20:16:00,
2013-01-03 15:21:00,52.5,49.4,30.13,South,180,0.0,0.0,89,-99.99,,,-99.99,WeatherSnoop3.0,2013-01-03 20:21:00,
2013-01-03 15:26:00,52.2,49.0,30.13,North,0,0.0,0.0,89,-99.99,,,-99.99,WeatherSnoop3.0,2013-01-03 20:26:00,
2013-01-03 15:31:00,52.2,49.0,30.14,North,0,0.0,0.0,89,-99.99,,,-99.99,WeatherSnoop3.0,2013-01-03 20:31:00,
2013-01-03 15:36:00,52.5,49.7,30.14,North,0,0.0,0.0,90,-99.99,,,-99.99,WeatherSnoop3.0,2013-01-03 20:36:00,
2013-01-03 15:41:00,52.5,49.7,30.14,North,0,0.0,0.0,90,-99.99,,,-99.99,WeatherSnoop3.0,2013-01-03 20:41:00,
2013-01-03 15:46:00,52.7,50.1,30.14,West,270,0.0,0.0,91,-99.99,,,-99.99,WeatherSnoop3.0,2013-01-03 20:46:00,
2013-01-03 15:51:00,52.7,50.4,30.14,North,0,0.0,0.0,92,-99.99,,,-99.99,WeatherSnoop3.0,2013-01-03 20:51:00,
2013-01-03 15:56:00,52.7,50.4,30.14,South,180,0.0,0.0,92,-99.99,,,-99.99,WeatherSnoop3.0,2013-01-03 20:56:00,
2013-01-03 16:01:00,52.5,50.3,30.14,North,0,0.0,0.0,92,-99.99,,,-99.99,WeatherSnoop3.0,2013-01-03 21:01:00,
2013-01-03 16:10:00,52.5,50.3,30.14,East,90,0.0,0.0,92,-99.99,,,-99.99,WeatherSnoop3.0,2013-01-03 21:10:00,
2013-01-03 16:15:00,52.5,50.3,30.15,East,90,0.0,0.0,92,-99.99,,,-99.99,WeatherSnoop3.0,2013-01-03 21:15:00,
2013-01-03 16:20:00,52.5,50.6,30.15,North,0,0.0,0.0,93,-99.99,,,-99.99,WeatherSnoop3.0,2013-01-03 21:20:00,
2013-01-03 16:25:00,52.2,50.2,30.14,East,90,0.0,0.0,93,-99.99,,,-99.99,WeatherSnoop3.0,2013-01-03 21:25:00,
2013-01-03 16:30:00,52.0,50.0,30.13,East,90,0.0,0.0,93,-99.99,,,-99.99,WeatherSnoop3.0,2013-01-03 21:30:00,
2013-01-03 16:35:00,51.8,49.8,30.14,East,90,0.0,0.0,93,-99.99,,,-99.99,WeatherSnoop3.0,2013-01-03 21:35:00,
2013-01-03 16:40:00,51.8,50.1,30.13,West,270,0.0,0.0,94,-99.99,,,-99.99,WeatherSnoop3.0,2013-01-03 21:40:00,
2013-01-03 16:45:00,52.0,50.3,30.14,West,270,0.0,0.0,94,-99.99,,,-99.99,WeatherSnoop3.0,2013-01-03 21:45:00,
2013-01-03 16:51:00,52.0,50.3,30.15,West,270,0.0,0.0,94,-99.99,,,-99.99,WeatherSnoop3.0,2013-01-03 21:51:00,
2013-01-03 16:56:00,52.0,50.3,30.15,West,270,0.0,0.0,94,-99.99,,,-99.99,WeatherSnoop3.0,2013-01-03 21:56:00,
2013-01-03 17:01:00,51.8,50.4,30.15,West,270,0.0,0.0,95,-99.99,,,-99.99,WeatherSnoop3.0,2013-01-03 22:01:00,
2013-01-03 17:06:00,51.8,50.4,30.14,West,270,0.0,0.0,95,-99.99,,,-99.99,WeatherSnoop3.0,2013-01-03 22:06:00,
2013-01-03 17:11:00,51.8,50.4,30.14,South,180,0.0,0.0,95,-99.99,,,-99.99,WeatherSnoop3.0,2013-01-03 22:11:00,
2013-01-03 17:16:00,51.6,50.5,30.13,South,180,0.0,0.0,96,-99.99,,,-99.99,WeatherSnoop3.0,2013-01-03 22:16:00,
2013-01-03 17:21:00,51.8,50.4,30.13,North,0,0.0,1.6,95,-99.99,,,-99.99,WeatherSnoop3.0,2013-01-03 22:21:00,
2013-01-03 17:26:00,51.8,50.4,30.16,North,0,0.0,0.0,95,-99.99,,,-99.99,WeatherSnoop3.0,2013-01-03 22:26:00,
2013-01-03 17:31:00,51.8,50.7,30.17,North,0,0.0,0.0,96,-99.99,,,-99.99,WeatherSnoop3.0,2013-01-03 22:31:00,
2013-01-03 17:36:00,51.8,50.7,30.16,West,270,0.0,0.0,96,-99.99,,,-99.99,WeatherSnoop3.0,2013-01-03 22:36:00,
2013-01-03 17:41:00,51.8,50.7,30.15,West,270,0.0,0.0,96,-99.99,,,-99.99,WeatherSnoop3.0,2013-01-03 22:41:00,
2013-01-03 17:46:00,51.6,50.8,30.15,South,180,0.0,0.0,97,-99.99,,,-99.99,WeatherSnoop3.0,2013-01-03 22:46:00,
2013-01-03 17:51:00,51.6,50.8,30.17,South,180,0.0,0.0,97,-99.99,,,-99.99,WeatherSnoop3.0,2013-01-03 22:51:00,
2013-01-03 17:56:00,51.6,50.8,30.17,South,180,0.0,0.0,97,-99.99,,,-99.99,WeatherSnoop3.0,2013-01-03 22:56:00,
2013-01-03 18:01:00,51.6,50.8,30.19,South,180,0.0,0.0,97,-99.99,,,-99.99,WeatherSnoop3.0,2013-01-03 23:01:00,
2013-01-03 18:06:00,51.4,50.9,30.18,East,90,0.0,0.0,98,-99.99,,,-99.99,WeatherSnoop3.0,2013-01-03 23:06:00,
2013-01-03 18:11:00,51.4,50.9,30.16,East,90,0.0,0.0,98,-99.99,,,-99.99,WeatherSnoop3.0,2013-01-03 23:11:00,
2013-01-03 18:16:00,51.4,50.9,30.17,North,0,0.0,0.0,98,-99.99,,,-99.99,WeatherSnoop3.0,2013-01-03 23:16:00,
2013-01-03 18:21:00,51.4,50.9,30.17,North,0,0.0,0.0,98,-99.99,,,-99.99,WeatherSnoop3.0,2013-01-03 23:21:00,
2013-01-03 18:26:00,51.4,50.9,30.18,North,0,0.0,0.0,98,-99.99,,,-99.99,WeatherSnoop3.0,2013-01-03 23:26:00,
2013-01-03 18:31:00,51.4,50.9,30.17,East,90,0.0,0.0,98,-99.99,,,-99.99,WeatherSnoop3.0,2013-01-03 23:31:00,
2013-01-03 18:36:00,51.6,51.1,30.18,East,90,0.0,0.0,98,-99.99,,,-99.99,WeatherSnoop3.0,2013-01-03 23:36:00,
2013-01-03 18:41:00,51.6,51.1,30.19,East,90,0.0,0.0,98,-99.99,,,-99.99,WeatherSnoop3.0,2013-01-03 23:41:00,
2013-01-03 18:46:00,51.6,51.1,30.19,East,90,0.0,0.0,98,-99.99,,,-99.99,WeatherSnoop3.0,2013-01-03 23:46:00,
2013-01-03 18:51:00,51.6,51.1,30.20,East,90,0.0,0.0,98,-99.99,,,-99.99,WeatherSnoop3.0,2013-01-03 23:51:00,
2013-01-03 18:56:00,51.8,51.0,30.21,West,270,0.0,0.0,97,-99.99,,,-99.99,WeatherSnoop3.0,2013-01-03 23:56:00,
2013-01-03 19:01:00,51.6,51.1,30.20,East,90,0.0,0.0,98,-99.99,,,-99.99,WeatherSnoop3.0,2013-01-04 00:01:00,
2013-01-03 19:06:00,51.6,51.3,30.20,East,90,0.0,0.0,99,-99.99,,,-99.99,WeatherSnoop3.0,2013-01-04 00:06:00,
2013-01-03 19:11:00,51.6,51.3,30.20,East,90,0.0,0.0,99,-99.99,,,-99.99,WeatherSnoop3.0,2013-01-04 00:11:00,
2013-01-03 19:16:00,51.6,51.3,30.20,East,90,0.0,0.0,99,-99.99,,,-99.99,WeatherSnoop3.0,2013-01-04 00:16:00,
2013-01-03 19:21:00,51.6,51.3,30.20,East,90,0.0,0.0,99,-99.99,,,-99.99,WeatherSnoop3.0,2013-01-04 00:21:00,
2013-01-03 19:26:00,51.6,51.3,30.20,North,0,0.0,0.0,99,-99.99,,,-99.99,WeatherSnoop3.0,2013-01-04 00:26:00,
2013-01-03 19:31:00,51.6,51.3,30.20,North,0,0.0,0.0,99,-99.99,,,-99.99,WeatherSnoop3.0,2013-01-04 00:31:00,
2013-01-03 19:36:00,51.4,51.2,30.21,North,0,0.0,0.0,99,-99.99,,,-99.99,WeatherSnoop3.0,2013-01-04 00:36:00,
2013-01-03 19:41:00,51.4,51.2,30.21,North,0,0.0,0.0,99,-99.99,,,-99.99,WeatherSnoop3.0,2013-01-04 00:41:00,
2013-01-03 19:46:00,51.3,51.0,30.22,South,180,0.0,0.0,99,-99.99,,,-99.99,WeatherSnoop3.0,2013-01-04 00:46:00,
2013-01-03 19:51:00,51.3,51.0,30.21,North,0,0.0,0.0,99,-99.99,,,-99.99,WeatherSnoop3.0,2013-01-04 00:51:00,
2013-01-03 19:56:00,51.1,50.8,30.22,North,0,0.0,0.0,99,-99.99,,,-99.99,WeatherSnoop3.0,2013-01-04 00:56:00,
2013-01-03 20:01:00,51.1,50.5,30.21,South,180,0.0,0.0,98,-99.99,,,-99.99,WeatherSnoop3.0,2013-01-04 01:01:00,
2013-01-03 20:06:00,51.1,50.5,30.22,South,180,0.0,0.0,98,-99.99,,,-99.99,WeatherSnoop3.0,2013-01-04 01:06:00,
2013-01-03 20:11:00,51.1,50.5,30.21,South,180,0.0,0.0,98,-99.99,,,-99.99,WeatherSnoop3.0,2013-01-04 01:11:00,
2013-01-03 20:16:00,50.9,50.4,30.22,North,0,0.0,0.0,98,-99.99,,,-99.99,WeatherSnoop3.0,2013-01-04 01:16:00,
2013-01-03 20:21:00,50.9,50.4,30.22,South,180,0.0,0.0,98,-99.99,,,-99.99,WeatherSnoop3.0,2013-01-04 01:21:00,
2013-01-03 20:26:00,50.9,50.4,30.22,North,0,0.0,0.0,98,-99.99,,,-99.99,WeatherSnoop3.0,2013-01-04 01:26:00,
2013-01-03 20:31:00,50.9,50.4,30.23,North,0,0.0,0.0,98,-99.99,,,-99.99,WeatherSnoop3.0,2013-01-04 01:31:00,
2013-01-03 20:36:00,50.9,50.4,30.22,North,0,0.0,0.0,98,-99.99,,,-99.99,WeatherSnoop3.0,2013-01-04 01:36:00,
2013-01-03 20:41:00,50.9,50.4,30.22,North,0,0.0,0.0,98,-99.99,,,-99.99,WeatherSnoop3.0,2013-01-04 01:41:00,
2013-01-03 20:46:00,50.9,50.4,30.22,North,0,0.0,0.0,98,-99.99,,,-99.99,WeatherSnoop3.0,2013-01-04 01:46:00,
2013-01-03 20:51:00,50.7,50.2,30.22,North,0,0.0,0.0,98,-99.99,,,-99.99,WeatherSnoop3.0,2013-01-04 01:51:00,
2013-01-03 20:56:00,50.5,50.0,30.23,West,270,1.6,3.1,98,-99.99,,,-99.99,WeatherSnoop3.0,2013-01-04 01:56:00,
2013-01-03 21:01:00,50.5,50.0,30.22,North,0,0.0,0.0,98,-99.99,,,-99.99,WeatherSnoop3.0,2013-01-04 02:01:00,
2013-01-03 21:06:00,50.5,50.0,30.23,North,0,0.0,0.0,98,-99.99,,,-99.99,WeatherSnoop3.0,2013-01-04 02:06:00,
2013-01-03 21:11:00,50.5,50.0,30.23,South,180,0.0,0.0,98,-99.99,,,-99.99,WeatherSnoop3.0,2013-01-04 02:11:00,
2013-01-03 21:16:00,50.4,49.8,30.23,North,0,0.7,2.2,98,-99.99,,,-99.99,WeatherSnoop3.0,2013-01-04 02:16:00,
2013-01-03 21:21:00,50.2,49.6,30.23,South,180,0.0,0.0,98,-99.99,,,-99.99,WeatherSnoop3.0,2013-01-04 02:21:00,
2013-01-03 21:26:00,50.2,49.4,30.24,North,0,0.0,0.0,97,-99.99,,,-99.99,WeatherSnoop3.0,2013-01-04 02:26:00,
2013-01-03 21:31:00,50.0,49.2,30.24,North,0,0.0,0.7,97,-99.99,,,-99.99,WeatherSnoop3.0,2013-01-04 02:31:00,
2013-01-03 21:36:00,49.6,49.1,30.24,North,0,0.0,0.0,98,-99.99,,,-99.99,WeatherSnoop3.0,2013-01-04 02:36:00,
2013-01-03 21:41:00,49.6,49.1,30.25,North,0,0.0,0.0,98,-99.99,,,-99.99,WeatherSnoop3.0,2013-01-04 02:41:00,
2013-01-03 21:46:00,49.5,48.9,30.25,South,180,0.0,0.0,98,-99.99,,,-99.99,WeatherSnoop3.0,2013-01-04 02:46:00,
2013-01-03 21:51:00,49.3,48.7,30.25,East,90,0.0,0.0,98,-99.99,,,-99.99,WeatherSnoop3.0,2013-01-04 02:51:00,
2013-01-03 21:56:00,49.3,48.7,30.25,South,180,0.0,0.0,98,-99.99,,,-99.99,WeatherSnoop3.0,2013-01-04 02:56:00,
2013-01-03 22:01:00,49.1,48.6,30.25,North,0,0.0,0.7,98,-99.99,,,-99.99,WeatherSnoop3.0,2013-01-04 03:01:00,
2013-01-03 22:06:00,49.1,48.6,30.25,North,0,0.7,2.2,98,-99.99,,,-99.99,WeatherSnoop3.0,2013-01-04 03:06:00,
2013-01-03 22:11:00,49.1,48.3,30.25,North,0,0.0,0.0,97,-99.99,,,-99.99,WeatherSnoop3.0,2013-01-04 03:11:00,
2013-01-03 22:16:00,49.1,48.3,30.25,East,90,0.0,0.0,97,-99.99,,,-99.99,WeatherSnoop3.0,2013-01-04 03:16:00,
2013-01-03 22:21:00,49.1,48.3,30.25,North,0,0.0,0.0,97,-99.99,,,-99.99,WeatherSnoop3.0,2013-01-04 03:21:00,
2013-01-03 22:26:00,49.1,48.3,30.26,North,0,0.0,0.0,97,-99.99,,,-99.99,WeatherSnoop3.0,2013-01-04 03:26:00,
2013-01-03 22:31:00,48.6,47.7,30.25,NW,315,0.0,0.0,97,-99.99,,,-99.99,WeatherSnoop3.0,2013-01-04 03:31:00,
2013-01-03 22:36:00,48.6,47.7,30.25,NW,315,0.0,0.0,97,-99.99,,,-99.99,WeatherSnoop3.0,2013-01-04 03:36:00,
2013-01-03 22:41:00,47.8,47.3,30.25,West,270,0.7,2.2,98,-99.99,,,-99.99,WeatherSnoop3.0,2013-01-04 03:41:00,
2013-01-03 22:46:00,47.8,47.3,30.26,North,0,0.0,1.6,98,-99.99,,,-99.99,WeatherSnoop3.0,2013-01-04 03:46:00,
2013-01-03 22:51:00,48.0,47.2,30.26,North,0,0.0,0.0,97,-99.99,,,-99.99,WeatherSnoop3.0,2013-01-04 03:51:00,
2013-01-03 22:56:00,47.8,47.0,30.26,NW,315,0.0,0.7,97,-99.99,,,-99.99,WeatherSnoop3.0,2013-01-04 03:56:00,
2013-01-03 23:01:00,47.7,46.9,30.26,North,0,0.7,1.6,97,-99.99,,,-99.99,WeatherSnoop3.0,2013-01-04 04:01:00,
2013-01-03 23:06:00,47.7,46.9,30.25,North,0,0.0,0.7,97,-99.99,,,-99.99,WeatherSnoop3.0,2013-01-04 04:06:00,
2013-01-03 23:11:00,47.5,46.7,30.26,East,90,0.0,0.0,97,-99.99,,,-99.99,WeatherSnoop3.0,2013-01-04 04:11:00,
2013-01-03 23:16:00,47.3,46.2,30.26,South,180,0.0,0.7,96,-99.99,,,-99.99,WeatherSnoop3.0,2013-01-04 04:16:00,
2013-01-03 23:21:00,47.3,46.2,30.26,West,270,0.0,0.0,96,-99.99,,,-99.99,WeatherSnoop3.0,2013-01-04 04:21:00,
2013-01-03 23:26:00,47.3,46.2,30.26,East,90,0.0,0.0,96,-99.99,,,-99.99,WeatherSnoop3.0,2013-01-04 04:26:00,
2013-01-03 23:31:00,47.3,46.2,30.26,North,0,0.0,0.0,96,-99.99,,,-99.99,WeatherSnoop3.0,2013-01-04 04:31:00,
2013-01-03 23:36:00,47.1,46.0,30.26,East,90,0.7,1.6,96,-99.99,,,-99.99,WeatherSnoop3.0,2013-01-04 04:36:00,
2013-01-03 23:41:00,47.1,46.0,30.26,East,90,1.6,3.1,96,-99.99,,,-99.99,WeatherSnoop3.0,2013-01-04 04:41:00,
2013-01-03 23:46:00,47.1,46.0,30.26,North,0,0.0,1.6,96,-99.99,,,-99.99,WeatherSnoop3.0,2013-01-04 04:46:00,
2013-01-03 23:51:00,46.9,45.9,30.25,North,0,0.0,0.0,96,-99.99,,,-99.99,WeatherSnoop3.0,2013-01-04 04:51:00,
2013-01-03 23:56:00,46.9,45.9,30.25,South,180,0.0,0.0,96,-99.99,,,-99.99,WeatherSnoop3.0,2013-01-04 04:56:00,